Zurück zum Katalog

ARIANE 3 DEB

AktivGTO
NORAD 20674·DEBRIS·🇫🇷 France

Gestartet Aug 4, 1984 von Guiana Space Centre

Loading…

TLE

AlterndSource: Space-Track

Epoche: Sep 14, 2026, 11:58 UTC

1 20674U 84081E   26257.49886593  .00000141  00000-0  75634-2 0  9997
2 20674   7.4788 352.0082 6972367 310.4807  25.3484  2.40806252299665

Verfolge ARIANE 3 DEB in Echtzeit mit AllMySat

Download on the App Store